VK4NB-13 Weather Reports


time (UTC)temp
F
wind
direction
speed
knots
gust
knots
rain 1hr
in
rain 24hr
in
rain mn
in
humidity
%
barometer
mb
20260508214001 66 0 0.0 0.0 0.00 0.07 0.00 45 1021.1
20260508213501 65 0 0.0 0.0 0.00 0.07 0.00 46 1021.1
20260508213023 65 0 0.0 0.0 0.00 0.07 0.00 46 1021.0
20260508212501 65 0 0.0 0.0 0.00 0.07 0.00 49 1020.9
20260508212022 64 0 0.0 0.0 0.00 0.07 0.00 48 1020.7
20260508211522 64 0 0.0 0.0 0.00 0.07 0.00 46 1020.9
20260508211001 64 0 0.0 0.0 0.00 0.07 0.00 47 1020.7
20260508210522 63 0 0.0 0.0 0.00 0.07 0.00 46 1020.7
20260508210001 63 0 0.0 0.0 0.00 0.07 0.00 47 1020.6
20260508205501 63 0 0.0 0.0 0.00 0.07 0.00 45 1020.7
20260508205022 62 0 0.0 0.0 0.00 0.07 0.00 47 1020.7
20260508204501 61 0 0.0 0.0 0.00 0.07 0.00 51 1020.3
20260508204022 61 0 0.0 0.0 0.00 0.07 0.00 50 1020.4
20260508203502 60 0 0.0 0.0 0.00 0.07 0.00 48 1020.6
20260508203002 60 0 0.0 0.0 0.00 0.07 0.00 52 1020.4
20260508202501 60 0 0.0 0.0 0.00 0.07 0.00 49 1020.2
20260508202001 59 0 0.0 0.0 0.00 0.07 0.00 51 1020.4
20260508201501 59 0 0.0 0.0 0.00 0.07 0.00 51 1020.3
20260508201001 60 0 0.0 0.0 0.00 0.07 0.00 50 1020.2
20260508200501 60 0 0.0 0.0 0.00 0.07 0.00 50 1020.2
20260508200001 59 0 0.0 0.0 0.00 0.07 0.00 50 1020.1
20260508195501 59 0 0.0 0.0 0.00 0.07 0.00 49 1020.1
20260508195001 59 0 0.0 0.0 0.00 0.07 0.00 48 1019.9
20260508194501 59 0 0.0 0.0 0.00 0.07 0.00 50 1020.0
20260508194002 59 0 0.0 0.0 0.00 0.07 0.00 49 1019.7
20260508193523 59 0 0.0 0.0 0.00 0.07 0.00 48 1019.5
20260508193002 58 0 0.0 0.0 0.00 0.07 0.00 49 1019.7
20260508192501 58 0 0.0 0.0 0.00 0.07 0.00 50 1019.6
20260508192001 58 0 0.0 0.0 0.00 0.07 0.00 52 1019.5
20260508191501 59 0 0.0 0.0 0.00 0.07 0.00 46 1019.5
20260508191001 59 0 0.0 0.0 0.00 0.07 0.00 47 1019.6
20260508190501 59 0 0.0 0.0 0.00 0.07 0.00 49 1019.4
20260508190002 59 0 0.0 0.0 0.00 0.07 0.00 47 1019.3
20260508185501 58 0 0.0 0.0 0.00 0.07 0.00 47 1019.2
20260508185001 57 0 0.0 0.0 0.00 0.07 0.00 50 1018.9
20260508184501 57 0 0.0 0.0 0.00 0.07 0.00 53 1019.1
20260508184001 57 0 0.0 0.0 0.00 0.07 0.00 53 1019.1
20260508183501 57 0 0.0 0.0 0.00 0.07 0.00 53 1019.1
20260508183002 57 0 0.0 0.0 0.00 0.07 0.00 53 1018.9
20260508182501 58 0 0.0 0.0 0.00 0.07 0.00 52 1019.2
20260508182001 57 0 0.0 0.0 0.00 0.07 0.00 52 1019.0
20260508181501 57 0 0.0 0.0 0.00 0.07 0.00 54 1019.0
20260508181001 59 0 0.0 0.0 0.00 0.07 0.00 48 1018.9
20260508180501 62 0 0.0 0.0 0.00 0.07 0.00 40 1018.8
20260508180022 61 0 0.0 0.0 0.00 0.07 0.00 42 1018.9
20260508175501 61 0 0.0 0.0 0.00 0.07 0.00 40 1018.8
20260508175002 60 0 0.0 0.0 0.00 0.07 0.00 45 1018.9
20260508174502 60 0 0.0 0.0 0.00 0.07 0.00 43 1018.8
20260508174002 60 0 0.0 0.0 0.00 0.07 0.00 44 1019.0
20260508173502 59 0 0.0 0.0 0.00 0.07 0.00 44 1018.8
20260508173002 59 0 0.0 0.0 0.00 0.07 0.00 44 1019.0
20260508172522 59 0 0.0 0.0 0.00 0.07 0.00 45 1019.0
20260508172002 59 0 0.0 0.0 0.00 0.07 0.00 43 1018.9
20260508171502 58 0 0.0 0.0 0.00 0.07 0.00 45 1019.1
20260508171023 60 0 0.0 0.0 0.00 0.07 0.00 46 1019.1
20260508170501 60 0 0.0 0.0 0.00 0.07 0.00 42 1019.1
20260508170002 60 0 0.0 0.0 0.00 0.07 0.00 42 1019.1
20260508165502 59 0 0.0 0.0 0.00 0.07 0.00 43 1019.2
20260508165002 59 0 0.0 0.0 0.00 0.07 0.00 46 1019.1
20260508164502 60 0 0.0 0.0 0.00 0.07 0.00 41 1019.1
20260508164001 60 0 0.0 0.0 0.00 0.07 0.00 41 1019.0
20260508163502 60 0 0.0 0.0 0.00 0.07 0.00 41 1019.1
20260508163003 59 0 0.0 0.0 0.00 0.07 0.00 42 1019.0
20260508162502 60 0 0.0 0.0 0.00 0.07 0.00 44 1019.0
20260508162002 60 0 0.0 0.0 0.00 0.07 0.00 43 1019.2
20260508161502 60 0 0.0 0.0 0.00 0.07 0.00 41 1019.0
20260508161002 60 0 0.0 0.0 0.00 0.07 0.00 41 1019.1
20260508160502 60 0 0.0 0.0 0.00 0.07 0.00 41 1019.3
20260508160002 60 0 0.0 0.0 0.00 0.07 0.00 42 1019.4
20260508155502 61 0 0.0 0.0 0.00 0.07 0.00 42 1019.2
20260508155002 61 0 0.0 0.0 0.00 0.07 0.00 40 1019.5
20260508154502 60 0 0.0 0.0 0.00 0.07 0.00 43 1019.4
20260508154002 61 0 0.0 0.0 0.00 0.07 0.00 40 1019.3
20260508153502 61 0 0.0 0.0 0.00 0.07 0.00 42 1019.3
20260508153003 61 0 0.0 0.0 0.00 0.07 0.00 41 1019.5
20260508152502 61 0 0.0 0.0 0.00 0.07 0.00 40 1019.5
20260508152023 61 0 0.0 0.0 0.00 0.07 0.00 41 1019.5
20260508151523 61 0 0.0 0.0 0.00 0.07 0.00 40 1019.5
20260508151002 61 0 0.0 0.0 0.00 0.09 0.00 40 1019.5
20260508150502 62 0 0.0 0.0 0.00 0.09 0.00 39 1019.6
20260508150002 61 0 0.0 0.0 0.00 0.09 0.00 39 1019.5
20260508145502 62 0 0.0 0.0 0.00 0.09 0.00 38 1019.6
20260508145023 62 0 0.0 0.0 0.00 0.09 0.00 39 1019.6
20260508144502 62 0 0.0 0.0 0.00 0.09 0.00 38 1019.7
20260508144023 62 0 0.0 0.0 0.00 0.09 0.00 38 1019.6
20260508143502 61 0 0.0 0.0 0.00 0.09 0.00 38 1019.7
20260508143002 62 0 0.0 0.0 0.00 0.09 0.00 40 1019.6
20260508142502 62 0 0.0 0.0 0.00 0.09 0.00 40 1019.7
20260508142023 62 0 0.0 0.0 0.00 0.09 0.00 39 1019.7
20260508141502 63 0 0.0 0.0 0.00 0.09 0.00 37 1019.8
20260508141002 63 0 0.0 0.0 0.00 0.09 0.00 37 1019.7
20260508140502 64 0 0.0 0.0 0.00 0.09 0.00 39 1019.8
20260508140002 64 0 0.0 0.0 0.00 0.09 0.00 38 1019.8
20260508135502 64 0 0.0 0.0 0.00 0.09 0.09 36 1020.2
20260508135002 64 0 0.0 0.0 0.00 0.09 0.09 36 1020.1
20260508134502 63 0 0.0 0.0 0.00 0.09 0.09 38 1019.8
20260508134023 63 0 0.0 0.0 0.00 0.09 0.09 38 1019.8
20260508133502 63 0 0.0 0.0 0.00 0.09 0.09 38 1020.2
20260508133003 63 0 0.0 0.0 0.00 0.09 0.09 38 1020.0
20260508132502 63 0 0.0 0.0 0.00 0.09 0.09 39 1019.9
20260508132002 62 0 0.0 0.0 0.00 0.09 0.09 38 1020.0
20260508131523 62 0 0.0 0.0 0.00 0.09 0.09 40 1020.0
20260508131002 61 0 0.0 0.0 0.00 0.09 0.09 43 1020.0
20260508130502 62 0 0.0 0.0 0.00 0.09 0.09 46 1020.1
20260508130002 64 0 0.0 0.0 0.00 0.09 0.09 37 1019.9
20260508125502 64 0 0.0 0.0 0.00 0.09 0.09 37 1019.9
20260508125002 64 0 0.0 0.0 0.00 0.09 0.09 37 1019.9
20260508124502 65 0 0.0 0.0 0.00 0.09 0.09 36 1020.0
20260508124002 65 0 0.0 0.0 0.00 0.09 0.09 36 1020.1
20260508123502 66 0 0.0 0.0 0.00 0.09 0.09 35 1019.9
20260508123003 66 0 0.0 0.0 0.00 0.09 0.09 34 1019.8
20260508122502 65 0 0.0 0.0 0.00 0.09 0.09 37 1019.9
20260508122002 66 0 0.0 0.0 0.00 0.09 0.09 35 1019.9
20260508121523 66 0 0.0 0.0 0.00 0.09 0.09 35 1020.0
20260508121002 66 0 0.0 0.0 0.00 0.09 0.09 37 1019.9
20260508120502 66 0 0.0 0.0 0.00 0.09 0.09 36 1019.9
20260508120002 66 0 0.0 0.0 0.00 0.09 0.09 37 1019.9
20260508115523 66 0 0.0 0.0 0.00 0.09 0.09 36 1020.0
20260508115002 66 0 0.0 0.0 0.00 0.09 0.09 37 1020.1
20260508114502 66 0 0.0 0.0 0.00 0.09 0.09 37 1020.0
20260508114002 67 0 0.0 0.0 0.00 0.09 0.09 37 1020.2
20260508113502 67 0 0.0 0.0 0.00 0.09 0.09 37 1020.0
20260508113004 67 0 0.0 0.0 0.00 0.09 0.09 37 1020.2
20260508112502 67 0 0.0 0.0 0.00 0.09 0.09 38 1020.3
20260508112023 68 0 0.0 0.0 0.00 0.09 0.09 36 1020.4
20260508111502 68 0 0.0 0.0 0.00 0.09 0.09 39 1020.4
20260508111002 67 0 0.0 0.0 0.00 0.09 0.09 41 1020.4
20260508110502 66 0 0.0 0.0 0.00 0.09 0.09 42 1020.5
20260508110002 66 0 0.0 0.0 0.00 0.09 0.09 44 1020.3
20260508105502 66 0 0.0 0.0 0.00 0.09 0.09 43 1020.0
20260508105002 66 0 0.0 0.0 0.00 0.09 0.09 46 1019.9
20260508104502 66 0 0.0 0.0 0.00 0.09 0.09 46 1020.1
20260508104002 66 0 0.0 0.0 0.00 0.09 0.09 46 1020.1
20260508103502 67 0 0.0 0.0 0.00 0.09 0.09 43 1020.1
20260508103004 67 0 0.0 0.0 0.00 0.09 0.09 42 1020.0
20260508102502 67 0 0.0 0.0 0.00 0.09 0.09 41 1019.8
20260508102002 67 0 0.0 0.0 0.00 0.09 0.09 42 1019.9
20260508101502 67 0 0.0 0.0 0.00 0.09 0.09 44 1019.7
20260508101002 67 0 0.0 0.0 0.00 0.09 0.09 42 1019.6
20260508100502 68 0 0.0 0.0 0.00 0.09 0.09 42 1019.5
20260508100024 67 0 0.0 0.0 0.00 0.09 0.09 43 1019.8
20260508095502 67 0 0.0 0.0 0.00 0.09 0.09 42 1019.5
20260508095024 67 0 0.0 0.0 0.00 0.09 0.09 43 1019.8
20260508094502 68 0 0.0 0.0 0.00 0.09 0.09 42 1019.3
20260508094003 68 0 0.0 0.0 0.00 0.09 0.09 40 1019.4
20260508093503 68 0 0.0 0.0 0.00 0.09 0.09 41 1019.5
20260508093003 68 0 0.0 0.0 0.00 0.09 0.09 43 1019.2
20260508092524 68 0 0.0 0.0 0.00 0.09 0.09 44 1019.2
20260508092003 69 0 0.0 0.0 0.00 0.09 0.09 43 1019.1
20260508091502 69 0 0.0 0.0 0.00 0.09 0.09 43 1019.2
20260508091023 68 0 0.0 0.0 0.00 0.09 0.09 43 1019.0
20260508090502 67 0 0.0 0.0 0.04 0.09 0.09 47 1019.3
20260508090024 68 0 0.0 0.0 0.07 0.09 0.09 46 1019.1
20260508085503 68 0 0.0 0.0 0.07 0.09 0.09 49 1018.8
20260508085002 68 0 0.0 0.0 0.07 0.09 0.09 47 1018.9
20260508084502 69 0 0.0 0.0 0.07 0.09 0.09 47 1018.8
20260508084003 69 0 0.0 0.0 0.07 0.09 0.09 45 1018.5
20260508083503 69 0 0.0 0.0 0.07 0.09 0.09 46 1018.5
20260508083003 68 0 0.0 0.0 0.07 0.09 0.09 48 1018.4
20260508082503 69 0 0.0 0.0 0.07 0.09 0.09 46 1018.4
20260508082003 69 0 0.0 0.0 0.07 0.09 0.09 45 1018.4
20260508081503 69 0 0.0 0.0 0.07 0.09 0.09 47 1018.3
20260508081003 68 0 0.0 0.0 0.07 0.09 0.09 51 1018.2
20260508080503 68 0 0.0 0.0 0.04 0.06 0.06 53 1018.1
20260508080003 69 0 0.0 0.0 0.00 0.04 0.02 48 1018.0
20260508075503 69 0 0.0 0.0 0.00 0.05 0.02 49 1018.0
20260508075003 70 0 0.0 0.0 0.00 0.05 0.02 48 1017.7
20260508074524 69 0 0.0 0.0 0.00 0.06 0.02 50 1017.8
20260508074003 69 0 0.0 0.0 0.00 0.06 0.02 53 1017.8
20260508073503 69 0 0.0 0.0 0.00 0.06 0.02 56 1017.6
20260508073004 70 0 0.0 0.0 0.00 0.06 0.02 54 1017.7
20260508072503 71 0 0.0 0.0 0.00 0.06 0.02 52 1017.6
20260508072024 72 0 0.0 0.0 0.00 0.06 0.02 50 1017.6
20260508071503 72 0 0.0 0.0 0.00 0.06 0.02 47 1017.5
20260508071003 72 0 0.0 0.0 0.00 0.06 0.02 50 1017.4
20260508070503 73 0 0.0 0.0 0.00 0.06 0.02 46 1017.6
20260508070003 73 0 0.0 0.0 0.00 0.06 0.02 46 1017.3
20260508065503 73 0 0.0 0.0 0.00 0.06 0.02 45 1017.5
20260508065024 74 0 0.0 0.0 0.00 0.06 0.02 45 1017.2
20260508064503 74 0 0.0 0.0 0.00 0.06 0.02 46 1017.3
20260508064024 74 0 0.0 0.0 0.00 0.06 0.02 47 1017.3
20260508063503 75 0 0.0 0.0 0.00 0.06 0.02 45 1017.2
20260508063004 75 90 0.0 1.7 0.00 0.06 0.02 45 1017.2
20260508062503 75 90 0.0 1.7 0.00 0.06 0.02 45 1017.0
20260508062003 75 0 0.0 0.0 0.00 0.06 0.02 45 1017.0
20260508061503 75 0 0.0 0.0 0.00 0.06 0.02 44 1016.8
20260508061024 76 0 0.0 0.0 0.00 0.06 0.02 44 1016.9
20260508060503 76 0 0.0 0.0 0.00 0.06 0.02 44 1017.0
20260508060003 76 0 0.0 0.0 0.00 0.06 0.02 44 1016.8
20260508055503 76 0 0.0 0.0 0.00 0.06 0.02 43 1016.4
20260508055003 77 0 0.0 0.0 0.00 0.06 0.02 44 1016.6
20260508054503 77 0 0.0 0.0 0.00 0.06 0.02 43 1016.7
20260508054004 78 0 0.0 0.0 0.00 0.06 0.02 43 1016.6
20260508053504 77 0 0.0 0.0 0.00 0.06 0.02 43 1016.5
20260508053003 78 0 0.0 0.0 0.00 0.06 0.02 42 1016.7
20260508052503 78 0 0.0 0.0 0.00 0.06 0.02 41 1016.4
20260508052024 78 0 0.0 0.0 0.00 0.06 0.02 43 1016.5
20260508051503 79 0 0.0 0.0 0.00 0.06 0.02 43 1016.3
20260508051003 78 0 0.0 0.0 0.00 0.06 0.02 41 1016.5
20260508050503 78 0 0.0 0.0 0.00 0.06 0.02 42 1016.5
20260508050003 78 0 0.0 0.0 0.00 0.06 0.02 43 1016.3
20260508045503 79 0 0.0 0.0 0.00 0.06 0.02 41 1016.3
20260508045003 79 0 0.0 0.0 0.00 0.06 0.02 42 1016.5
20260508044503 79 0 0.0 0.0 0.00 0.06 0.02 41 1016.3
20260508044004 79 0 0.0 0.0 0.00 0.06 0.02 41 1016.4
20260508043504 79 0 0.0 0.0 0.00 0.06 0.02 42 1016.3
20260508043004 79 0 0.0 0.0 0.00 0.06 0.02 42 1016.4
20260508042503 78 0 0.0 0.0 0.00 0.06 0.02 42 1016.3
20260508042003 80 0 0.0 0.0 0.00 0.06 0.02 42 1016.4
20260508041504 79 0 0.0 0.0 0.00 0.06 0.02 41 1016.5
20260508041003 80 0 0.0 0.0 0.00 0.06 0.02 43 1016.7
20260508040503 79 0 0.0 0.0 0.00 0.06 0.02 40 1016.7
20260508040003 78 0 0.0 0.0 0.00 0.06 0.02 42 1016.6
20260508035524 80 0 0.0 0.0 0.00 0.06 0.02 42 1016.7
20260508035004 79 0 0.0 0.0 0.00 0.06 0.02 42 1016.8
20260508034504 80 0 0.0 0.0 0.00 0.06 0.02 42 1016.8
20260508034003 80 0 0.0 0.0 0.00 0.06 0.02 46 1017.2
20260508033503 79 0 0.0 0.0 0.00 0.06 0.02 42 1016.9
20260508033004 79 0 0.0 0.0 0.00 0.06 0.02 42 1017.1
20260508032503 80 0 0.0 0.0 0.00 0.06 0.02 44 1017.4
20260508032003 80 0 0.0 0.0 0.00 0.06 0.02 46 1017.0
20260508031503 79 0 0.0 0.0 0.00 0.06 0.02 49 1017.2
20260508031003 80 0 0.0 0.0 0.00 0.06 0.02 47 1017.2
20260508030503 79 0 0.0 0.0 0.00 0.06 0.02 46 1017.4
20260508030024 79 0 0.0 0.0 0.00 0.06 0.02 48 1017.5
20260508025503 80 0 0.0 0.0 0.00 0.06 0.02 47 1017.3
20260508025003 80 0 0.0 0.0 0.00 0.06 0.02 48 1017.5
20260508024503 81 0 0.0 0.0 0.00 0.06 0.02 50 1017.9
20260508024004 80 0 0.0 0.0 0.00 0.06 0.02 47 1017.8
20260508023504 78 0 0.0 0.0 0.00 0.06 0.02 47 1017.8
20260508023004 80 0 0.0 0.0 0.00 0.06 0.02 48 1018.0
20260508022503 79 0 0.0 0.0 0.00 0.06 0.02 49 1018.0
20260508022003 79 0 0.0 0.0 0.00 0.06 0.02 48 1018.0
20260508021503 80 0 0.0 0.0 0.00 0.06 0.02 47 1018.2
20260508021003 78 0 0.0 0.0 0.00 0.06 0.02 47 1018.2
20260508020501 79 0 0.0 0.0 0.00 0.06 0.02 48 1018.3
20260508020001 78 0 0.0 0.0 0.00 0.06 0.02 48 1018.4
20260508015501 77 0 0.0 0.0 0.00 0.06 0.02 49 1018.3
20260508015001 77 0 0.0 0.0 0.00 0.06 0.02 48 1018.6
20260508014501 77 0 0.0 0.0 0.00 0.06 0.02 47 1018.7
20260508014022 78 0 0.0 0.0 0.00 0.06 0.02 48 1018.7
20260508013522 78 0 0.0 0.0 0.00 0.06 0.02 48 1018.7
20260508013001 78 0 0.0 0.0 0.00 0.06 0.02 46 1018.8
20260508012501 78 0 0.0 0.0 0.00 0.06 0.02 49 1018.8
20260508012001 78 0 0.0 0.0 0.00 0.06 0.02 47 1019.0
20260508011501 77 0 0.0 0.0 0.00 0.06 0.02 49 1019.1
20260508011001 76 0 0.0 0.0 0.00 0.06 0.02 48 1019.3
20260508010501 77 0 0.0 0.0 0.00 0.06 0.02 48 1019.4
20260508010001 76 0 0.0 0.0 0.00 0.06 0.02 49 1019.3
20260508005501 76 0 0.0 0.0 0.00 0.06 0.02 49 1019.4
20260508005001 77 0 0.0 0.0 0.00 0.06 0.02 50 1019.6
20260508004501 76 0 0.0 0.0 0.00 0.06 0.02 51 1019.6
20260508004023 76 0 0.0 0.0 0.00 0.06 0.02 49 1019.6
20260508003502 75 0 0.0 0.0 0.00 0.06 0.02 51 1019.6
20260508003002 75 0 0.0 0.0 0.00 0.06 0.02 51 1019.7
20260508002501 75 0 0.0 0.0 0.00 0.06 0.02 53 1019.8
20260508002001 74 0 0.0 0.0 0.00 0.06 0.02 55 1019.8
20260508001501 74 0 0.0 0.0 0.00 0.06 0.02 52 1019.7
20260508001001 75 0 0.0 0.0 0.00 0.06 0.02 51 1019.9
20260508000501 74 0 0.0 0.0 0.00 0.06 0.02 52 1019.8
20260508000001 73 0 0.0 0.0 0.00 0.06 0.02 53 1019.9
20260507235501 74 0 0.0 0.0 0.00 0.06 0.02 52 1020.0
20260507235001 73 0 0.0 0.0 0.00 0.06 0.02 55 1019.7
20260507234501 74 0 0.0 0.0 0.00 0.06 0.02 52 1020.0
20260507234001 74 0 0.0 0.0 0.00 0.06 0.02 53 1019.7
20260507233501 73 0 0.0 0.0 0.00 0.06 0.02 54 1019.9
20260507233002 72 0 0.0 0.0 0.00 0.06 0.02 55 1019.9
20260507232522 72 0 0.0 0.0 0.00 0.06 0.02 56 1020.0
20260507232001 71 0 0.0 0.0 0.00 0.06 0.02 56 1020.2
20260507231522 72 0 0.0 0.0 0.00 0.06 0.02 56 1020.0
20260507231001 71 0 0.0 0.0 0.00 0.06 0.02 57 1019.7
20260507230501 71 0 0.0 0.0 0.00 0.06 0.02 57 1020.1
20260507230001 70 0 0.0 0.0 0.00 0.06 0.02 58 1020.0
20260507225501 70 0 0.0 0.0 0.00 0.06 0.02 60 1020.1
20260507225001 70 0 0.0 0.0 0.00 0.06 0.02 60 1020.0
20260507224501 69 0 0.0 0.0 0.00 0.06 0.02 61 1019.9
20260507224002 69 0 0.0 0.0 0.00 0.06 0.02 59 1020.1
20260507223522 69 0 0.0 0.0 0.00 0.06 0.02 58 1020.2
20260507223002 69 0 0.0 0.0 0.00 0.06 0.02 60 1020.0
20260507222501 68 0 0.0 0.0 0.00 0.06 0.02 61 1020.1
20260507222001 68 0 0.0 0.0 0.00 0.06 0.02 63 1020.1
20260507221522 68 0 0.0 0.0 0.00 0.06 0.02 61 1019.9
20260507221022 67 0 0.0 0.0 0.00 0.06 0.02 60 1019.7
20260507220501 67 0 0.0 0.0 0.00 0.06 0.02 63 1019.7
20260507220001 67 0 0.0 0.0 0.00 0.06 0.02 64 1019.7
20260507215522 67 0 0.0 0.0 0.00 0.06 0.02 62 1019.6
20260507215001 67 0 0.0 0.0 0.00 0.06 0.02 65 1019.7
20260507214523 66 0 0.0 0.0 0.00 0.06 0.02 66 1019.7